Content
SEND FEEDBACK

Daily
Averages
Monthly
Summary
United States of America

ST. LOUIS, MISSOURI


Home > North America > United States > Missouri
Elevation: 535 feet     Latitude: 38 45N     Longitude: 090 22W

WEATHER
 
SELECT A DAY
Number of Records: 201,199;   Date Range: 1/1/95 - 12/17/14
 
SHARE

PRINT THIS DATA

[ ← Previous Day ]
WEATHER ALMANAC - FEBRUARY 28, 2013
[ Next Day → ]
[ °C ]   °F
Weather ElementAverageHighLow
Temperature32.8 °F35.1 °F (3:54 pm)30.9 °F (11:54 pm)
Dewpoint27.2 °F28.9 °F (7:54 pm)26.1 °F (1:54 am)
Humidity79.8 %89 % (11:54 pm)70 % (3:54 pm)
Barometer30.06 in30.14 in (7:54 pm)29.91 in (3:07 am)
Wind Speed9.3 mph16.1 mph (10:54 am)
Wind Gust20.7 mph (8:54 am)
Weather ElementAverage
Visibility7.6 mi
Wind DirectionWNW (286.4 °)

Weather ElementTotal
Precipitation---
Heating Degree Days32 (Base 65)
Averaged from 28 records on February 28, 2013
WEATHER CONDITIONS BREAKOUT
WIND DIRECTION BREAKOUT
WEATHER BY HOUR - FEBRUARY 28, 2013
[ °C ]   °F
Local TimeTemperatureDewpointHumidityBarometerVisibilityWind DirectionWind SpeedGust SpeedPrecipitationEventsConditions
1:54 AM32.0 °F26.1 °F79 %29.93 in10.0 miWest (270°)10.4 mphOvercast
2:54 AM32.0 °F26.1 °F79 %29.93 in10.0 miWest (280°)12.7 mphOvercast
3:07 AM32.0 °F26.6 °F80 %29.91 in10.0 miWest (280°)10.4 mphOvercast
3:54 AM32.0 °F26.1 °F79 %29.95 in10.0 miWest (280°)9.2 mphOvercast
4:54 AM32.0 °F26.1 °F79 %29.97 in10.0 miWNW (290°)8.1 mphOvercast
5:54 AM32.0 °F26.6 °F80 %29.96 in10.0 miWNW (290°)8.1 mphOvercast
6:54 AM32.0 °F27.0 °F82 %30.00 in8.0 miWest (280°)12.7 mphOvercast
7:54 AM33.1 °F27.0 °F78 %30.03 in9.0 miWest (280°)10.4 mphOvercast
8:54 AM33.1 °F28.0 °F82 %30.04 in8.0 miWNW (300°)10.4 mph20.7 mphOvercast
9:54 AM34.0 °F27.0 °F75 %30.06 in9.0 miWNW (290°)15.0 mph19.6 mphOvercast
10:34 AM33.8 °F26.6 °F75 %30.04 in10.0 miWNW (300°)15.0 mphOvercast
10:54 AM34.0 °F27.0 °F75 %30.07 in10.0 miWNW (300°)16.1 mph20.7 mphOvercast
11:54 AM33.1 °F26.1 °F75 %30.08 in9.0 miWest (280°)15.0 mphOvercast
12:54 PM34.0 °F27.0 °F75 %30.08 in9.0 miWNW (300°)12.7 mphOvercast
1:54 PM34.0 °F26.1 °F73 %30.08 in10.0 miWest (270°)11.5 mphOvercast
2:54 PM34.0 °F26.1 °F73 %30.09 in10.0 miWNW (290°)10.4 mphOvercast
3:54 PM35.1 °F26.1 °F70 %30.10 in10.0 miWest (280°)9.2 mphOvercast
4:54 PM35.1 °F26.1 °F70 %30.11 in10.0 miWNW (300°)9.2 mphOvercast
5:54 PM34.0 °F27.0 °F75 %30.12 in8.0 miWNW (300°)5.8 mph0.00 inSnowLight Snow
6:54 PM33.1 °F28.0 °F82 %30.13 in5.0 miWNW (300°)5.8 mph0.00 inSnowLight Snow
7:54 PM32.0 °F28.9 °F88 %30.14 in4.0 miWest (270°)4.6 mph0.00 inSnowLight Snow
8:07 PM32.0 °F28.4 °F87 %30.11 in3.0 miWest (280°)4.6 mph0.00 inSnowLight Snow
8:14 PM32.0 °F28.4 °F87 %30.11 in3.0 miWest (280°)4.6 mph0.00 inSnowLight Snow
8:26 PM32.0 °F28.4 °F87 %30.11 in3.0 miWest (280°)4.6 mph0.00 inSnowLight Snow
8:54 PM32.0 °F28.9 °F88 %30.14 in4.0 miWest (280°)5.8 mph0.00 inSnowLight Snow
9:54 PM32.0 °F28.9 °F88 %30.14 in3.0 miWest (270°)4.6 mph0.00 inSnowLight Snow
10:54 PM32.0 °F28.0 °F85 %30.13 in4.0 miWNW (290°)6.9 mph0.00 inSnowLight Snow
11:54 PM30.9 °F28.0 °F89 %30.13 in3.0 miNW (310°)6.9 mph0.00 inSnowLight Snow
Hourly data recorded from KSUS, located miles away from St. Louis, Missouri







STORIES FROM OUR PARTNERS